User: anonymous   Login
Location: Unspecified
(0.0000°N, 0.0000°E)
Time: 00:35:25
(UTC+00:00)
Language:

SWISSCUBE - Orbit

View from above orbital plane
View from above orbital plane
View from above satellite
View from above satellite

Ground track
Ground track

The orbit data is extracted from the following two-line orbital elements,

1 35932U 09051B   15117.84490748  .00001273  00000-0  30410-3 0  9990
2 35932 098.4018 236.2599 0008832 130.0960 230.1013 14.55323070296647
Epoch (UTC): 27 April 2015 20:16:40
Eccentricity: 0.0008832
inclination: 98.4018°
perigee height: 702 km
apogee height: 714 km
right ascension of ascending node: 236.2599°
argument of perigee: 130.0960°
revolutions per day: 14.55323070
mean anomaly at epoch: 230.1013°
orbit number at epoch: 29664

The dashed part of the orbit path shows where the satellite is in the earth's shadow,  

DLR